カタログに戻る

NPSAT1

運用中軍事LEO
NORAD 44340·PAYLOAD·🇺🇸 United States

打ち上げ Jun 25, 2019 から Cape Canaveral Space Force Station

Loading…

次のパス (今後24時間)

TLE

最新Source: Space-Track

元期: Sep 14, 2026, 13:22 UTC

1 44340U 19036B   26257.55750165  .00004296  00000-0  58447-3 0  9992
2 44340  24.0001 355.3576 0007588 136.5797 223.5298 14.75277973385700

AllMySatでNPSAT1をリアルタイム追跡

Download on the App Store